TimeCDT,TemperatureF,Dew PointF,Humidity,Sea Level PressureIn,VisibilityMPH,Wind Direction,Wind SpeedMPH,Gust SpeedMPH,PrecipitationIn,Events,Conditions,WindDirDegrees,DateUTC
12:15 AM,79.9,67.5,66,29.87,10.0,Calm,Calm,-,N/A,,Clear,0,2013-09-01 05:15:00
12:35 AM,79.7,67.5,66,29.87,10.0,Calm,Calm,-,N/A,,Clear,0,2013-09-01 05:35:00
12:55 AM,79.5,67.6,67,29.87,10.0,Calm,Calm,-,N/A,,Clear,0,2013-09-01 05:55:00
1:15 AM,79.7,68.0,67,29.86,10.0,Calm,Calm,-,N/A,,Clear,0,2013-09-01 06:15:00
1:35 AM,79.0,68.0,69,29.87,10.0,Calm,Calm,-,N/A,,Clear,0,2013-09-01 06:35:00
1:55 AM,78.6,68.2,70,29.87,10.0,Calm,Calm,-,N/A,,Clear,0,2013-09-01 06:55:00
2:15 AM,77.0,68.2,74,29.87,10.0,Calm,Calm,-,N/A,,Clear,0,2013-09-01 07:15:00
2:35 AM,76.6,68.7,76,29.87,10.0,Calm,Calm,-,N/A,,Clear,0,2013-09-01 07:35:00
2:55 AM,77.4,68.9,75,29.87,10.0,Calm,Calm,-,N/A,,Clear,0,2013-09-01 07:55:00
3:15 AM,77.2,68.9,76,29.87,10.0,Calm,Calm,-,N/A,,Clear,0,2013-09-01 08:15:00
3:35 AM,76.6,68.9,77,29.87,10.0,Calm,Calm,-,N/A,,Clear,0,2013-09-01 08:35:00
3:55 AM,76.3,68.9,78,29.87,10.0,Calm,Calm,-,N/A,,Clear,0,2013-09-01 08:55:00
4:15 AM,76.1,68.9,78,29.88,10.0,Calm,Calm,-,N/A,,Clear,0,2013-09-01 09:15:00
4:35 AM,75.6,68.9,80,29.87,10.0,Calm,Calm,-,N/A,,Clear,0,2013-09-01 09:35:00
4:55 AM,75.2,68.9,81,29.88,10.0,Calm,Calm,-,N/A,,Clear,0,2013-09-01 09:55:00
5:15 AM,75.2,69.1,81,29.88,10.0,Calm,Calm,-,N/A,,Clear,0,2013-09-01 10:15:00
5:35 AM,75.0,69.1,82,29.89,10.0,Calm,Calm,-,N/A,,Clear,0,2013-09-01 10:35:00
5:55 AM,74.3,69.1,84,29.90,10.0,Calm,Calm,-,N/A,,Clear,0,2013-09-01 10:55:00
6:15 AM,74.3,69.1,84,29.90,10.0,Calm,Calm,-,N/A,,Clear,0,2013-09-01 11:15:00
6:35 AM,74.3,69.1,84,29.90,10.0,Calm,Calm,-,N/A,,Clear,0,2013-09-01 11:35:00
6:55 AM,74.3,69.3,84,29.91,7.0,Calm,Calm,-,N/A,,Clear,0,2013-09-01 11:55:00
7:15 AM,75.0,69.8,84,29.91,7.0,Calm,Calm,-,N/A,,Clear,0,2013-09-01 12:15:00
7:35 AM,75.7,70.0,82,29.92,7.0,Calm,Calm,-,N/A,,Clear,0,2013-09-01 12:35:00
7:55 AM,78.1,70.2,77,29.92,10.0,Calm,Calm,-,N/A,,Clear,0,2013-09-01 12:55:00
8:15 AM,80.1,70.7,73,29.92,10.0,WSW,5.8,-,N/A,,Clear,240,2013-09-01 13:15:00
8:35 AM,81.5,70.9,70,29.92,10.0,Calm,Calm,-,N/A,,Clear,0,2013-09-01 13:35:00
8:55 AM,83.7,71.4,66,29.93,10.0,Calm,Calm,-,N/A,,Clear,0,2013-09-01 13:55:00
9:15 AM,84.7,71.1,63,29.94,10.0,WSW,8.1,-,N/A,,Clear,250,2013-09-01 14:15:00
9:35 AM,87.1,71.1,59,29.94,10.0,Calm,Calm,-,N/A,,Clear,0,2013-09-01 14:35:00
9:55 AM,88.7,71.1,56,29.94,10.0,WSW,4.6,-,N/A,,Clear,250,2013-09-01 14:55:00
10:15 AM,89.8,70.0,52,29.94,10.0,Calm,Calm,-,N/A,,Clear,0,2013-09-01 15:15:00
10:35 AM,91.4,69.1,48,29.94,10.0,SW,6.9,-,N/A,,Clear,230,2013-09-01 15:35:00
10:55 AM,92.1,68.9,46,29.94,10.0,Calm,Calm,-,N/A,,Clear,0,2013-09-01 15:55:00
11:15 AM,94.3,68.5,43,29.93,10.0,Calm,Calm,-,N/A,,Clear,0,2013-09-01 16:15:00
11:35 AM,95.0,67.8,41,29.93,10.0,West,8.1,-,N/A,,Clear,260,2013-09-01 16:35:00
11:55 AM,95.9,66.4,38,29.92,10.0,WSW,9.2,-,N/A,,Clear,240,2013-09-01 16:55:00
12:15 PM,96.6,66.2,37,29.92,10.0,SW,3.5,-,N/A,,Clear,220,2013-09-01 17:15:00
12:35 PM,97.9,66.0,35,29.91,10.0,SSW,6.9,-,N/A,,Clear,200,2013-09-01 17:35:00
12:55 PM,99.0,65.7,34,29.90,10.0,West,8.1,-,N/A,,Clear,260,2013-09-01 17:55:00
1:15 PM,99.3,63.9,31,29.90,10.0,WSW,9.2,-,N/A,,Clear,250,2013-09-01 18:15:00
1:35 PM,99.3,62.4,30,29.89,10.0,Calm,Calm,-,N/A,,Clear,0,2013-09-01 18:35:00
1:55 PM,99.9,63.9,31,29.88,10.0,Calm,Calm,-,N/A,,Clear,0,2013-09-01 18:55:00
2:15 PM,99.9,63.3,30,29.87,10.0,Calm,Calm,-,N/A,,Clear,0,2013-09-01 19:15:00
2:35 PM,100.9,62.2,28,29.86,10.0,Calm,Calm,-,N/A,,Clear,0,2013-09-01 19:35:00
2:55 PM,101.1,61.9,27,29.85,10.0,Calm,Calm,-,N/A,,Clear,0,2013-09-01 19:55:00
3:15 PM,102.7,63.0,27,29.85,10.0,Calm,Calm,-,N/A,,Clear,0,2013-09-01 20:15:00
3:35 PM,102.6,60.8,25,29.84,10.0,Calm,Calm,-,N/A,,Clear,0,2013-09-01 20:35:00
3:55 PM,102.7,61.3,26,29.82,10.0,Calm,Calm,-,N/A,,Clear,0,2013-09-01 20:55:00
4:15 PM,100.9,60.8,27,29.82,10.0,Calm,Calm,-,N/A,,Scattered Clouds,0,2013-09-01 21:15:00
4:35 PM,102.4,62.8,27,29.81,10.0,SW,9.2,-,N/A,,Scattered Clouds,230,2013-09-01 21:35:00
4:55 PM,99.9,62.2,29,29.82,10.0,Calm,Calm,-,N/A,,Clear,0,2013-09-01 21:55:00
5:15 PM,101.3,61.9,27,29.82,10.0,Calm,Calm,-,N/A,,Clear,0,2013-09-01 22:15:00
5:35 PM,101.3,61.2,27,29.81,10.0,Calm,Calm,-,N/A,,Clear,0,2013-09-01 22:35:00
5:55 PM,100.8,60.8,27,29.81,10.0,Calm,Calm,-,N/A,,Clear,0,2013-09-01 22:55:00
6:15 PM,99.5,63.1,30,29.81,10.0,Calm,Calm,-,N/A,,Clear,0,2013-09-01 23:15:00
6:35 PM,98.6,63.1,31,29.82,10.0,Calm,Calm,-,N/A,,Clear,0,2013-09-01 23:35:00
6:55 PM,95.0,64.4,36,29.82,10.0,Calm,Calm,-,N/A,,Clear,0,2013-09-01 23:55:00
7:15 PM,93.2,64.6,39,29.82,10.0,Calm,Calm,-,N/A,,Clear,0,2013-09-02 00:15:00
7:35 PM,91.9,64.4,40,29.83,10.0,Calm,Calm,-,N/A,,Clear,0,2013-09-02 00:35:00
7:55 PM,89.1,65.3,45,29.84,10.0,Calm,Calm,-,N/A,,Clear,0,2013-09-02 00:55:00
8:15 PM,88.9,65.5,46,29.84,10.0,Calm,Calm,-,N/A,,Clear,0,2013-09-02 01:15:00
8:35 PM,88.2,65.8,47,29.84,10.0,Calm,Calm,-,N/A,,Clear,0,2013-09-02 01:35:00
8:55 PM,87.1,66.4,50,29.84,10.0,Calm,Calm,-,N/A,,Clear,0,2013-09-02 01:55:00
9:15 PM,86.5,67.8,53,29.85,10.0,Calm,Calm,-,N/A,,Clear,0,2013-09-02 02:15:00
9:35 PM,86.4,68.4,55,29.85,10.0,Calm,Calm,-,N/A,,Clear,0,2013-09-02 02:35:00
9:55 PM,86.4,68.5,55,29.86,10.0,Calm,Calm,-,N/A,,Clear,0,2013-09-02 02:55:00
10:15 PM,85.6,68.9,57,29.87,10.0,Calm,Calm,-,N/A,,Clear,0,2013-09-02 03:15:00
10:35 PM,85.1,68.9,58,29.87,10.0,Calm,Calm,-,N/A,,Clear,0,2013-09-02 03:35:00
10:55 PM,85.1,68.9,58,29.87,10.0,Calm,Calm,-,N/A,,Clear,0,2013-09-02 03:55:00
11:15 PM,85.3,69.1,58,29.88,10.0,Calm,Calm,-,N/A,,Clear,0,2013-09-02 04:15:00
11:35 PM,84.2,69.4,61,29.88,10.0,Calm,Calm,-,N/A,,Clear,0,2013-09-02 04:35:00
11:55 PM,83.5,69.8,63,29.88,10.0,Calm,Calm,-,N/A,,Clear,0,2013-09-02 04:55:00